OpenBCM V2.0.2 (Linux)

Packet Radio Mailbox

IZ3LSV

[San Dona' di P. JN]

 Login: GUEST





  
LU9DCE > KEPS     14.07.18 19:50l 257 Lines 12661 Bytes #999 (0) @ WW
BID : 6446_LU9DCE
Read: GUEST
Subj: SAT TLE 31
Path: IZ3LSV<DB0ERF<DB0RES<IR2UBX<IK6ZDE<VE2PKT<LU3DVN<LU9DCE
Sent: 180531/0401Z 6446@LU9DCE.TOR.BA.ARG.SOAM BPQ6.0.16


            __    _  _  ___  ____   ___  ____    ____  ____  ____
           (  )  / )( \/ _ \(    \ / __)(  __)  (  _ \(  _ \/ ___)
           / (_/\) \/ (\__  )) D (( (__  ) _)    ) _ ( ) _ (\___ \
           \____/\____/(___/(____/ \___)(____)  (____/(____/(____/
               ESTACION DE PACKET RADIO - BUENOS AIRES (GF05OM)
                   BOLETINES INFORMATIVOS PROGRAMADOS (BIP)
                    LU9DCE@GMX.COM - RF 145070 @ 1200 BAUD
                    MAP LU9DCE lu9dce.dynu.com UDP 10093 B
            BPQ32 (*WINDOWS 7*) - TELNET LU9DCE.DYNU.COM PORT 8010

+------------------------------------------------------------------------------+
OSCAR 7
1  7530U 74089B   18150.54997586 -.00000042 +00000-0 +13886-4 0  9998
2  7530 101.6857 118.1353 0012291 011.6260 104.0182 12.53632770992156
OSCAR 11 (UoSAT 2)
1 14781U 84021B   18150.59261380 +.00000052 +00000-0 +12633-4 0  9991
2 14781 097.6505 187.5579 0009615 133.8171 226.3839 14.83006808820834
OSCAR 19 (LUSAT)
1 20442U 90005G   18150.54589471 -.00000003 +00000-0 +15013-4 0  9992
2 20442 098.6094 089.1469 0011307 197.1051 162.9754 14.32896525481308
EYESAT A
1 22825U 93061C   18150.51875379 -.00000015  00000-0  12097-4 0  9998
2 22825  98.8613 126.3151 0009198  43.7126 316.4783 14.30031135287049
ITAMSAT
1 22826U 93061D   18150.46971194 -.00000011 +00000-0 +13435-4 0  9998
2 22826 098.8555 126.3052 0009574 034.1105 326.0690 14.30362575286974
RADIO ROSTO
1 23439U 94085A   18150.07075321 -.00000038 +00000-0 +12001-3 0  9996
2 23439 064.8188 018.1337 0157714 185.3489 288.4614 11.27566824964525
JAS 2
1 24278U 96046B   18150.55716408  .00000001  00000-0  34839-4 0  9991
2 24278  98.5186 351.7442 0350804 156.5212 205.2391 13.53083769 75852
TECHSAT 1B
1 25397U 98043D   18150.39076656 -.00000024  00000-0  86275-5 0  9997
2 25397  98.6491  91.1246 0002431  79.6423 280.5030 14.23646054 33198
ISS (ZARYA)
1 25544U 98067A   18150.41452044 +.00001234 +00000-0 +25915-4 0  9995
2 25544 051.6396 107.3091 0003951 136.3296 009.3544 15.54109660115752
PCSAT
1 26931U 01043C   18150.59618864 -.00000055 +00000-0 +10820-4 0  9997
2 26931 067.0516 274.7980 0007634 277.0867 082.9366 14.30506245869964
SAUDISAT 1C
1 27607U 02058C   18150.45395387 -.00000006  00000-0  20013-4 0  9993
2 27607  64.5536 144.2395 0063384 332.2629  27.5097 14.75451951830342
CUTE-1
1 27844U 03031E   18150.58002833 +.00000041 +00000-0 +38400-4 0  9990
2 27844 098.6866 159.4961 0010939 065.9895 294.2427 14.22114808773658
CUBESAT XI 4
1 27848U 03031J   18150.88634332  .00000030  00000-0  33428-4 0  9995
2 27848  98.6952 160.1903 0010907  74.4127 285.8254 14.21718621773602
MOZHAYETS 4
1 27939U 03042A   18150.86500017  .00000091  00000-0  24758-4 0  9991
2 27939  97.9880 290.4491 0012545 197.6846 315.3830 14.66688830784271
CUBESAT XI 5
1 28895U 05043F   18150.36391939 +.00000105 +00000-0 +28909-4 0  9990
2 28895 097.9069 302.5439 0018074 123.4602 236.8332 14.63548083671034
CUTE-1.7+APD II
1 32785U 08021C   18150.49810696 +.00000213 +00000-0 +28701-4 0  9992
2 32785 097.5475 163.5207 0014754 096.5308 263.7589 14.88121499546473
DELFI C3
1 32789U 08021G   18150.37251625 +.00001545 +00000-0 +10992-3 0  9995
2 32789 097.5129 205.6327 0012357 006.5387 353.5999 15.06039872549008
SEEDS
1 32791U 08021J   18150.54850285  .00000282  00000-0  34131-4 0  9993
2 32791  97.5367 168.8876 0015039  79.0105 281.2804 14.90551617546880
YUBELEINY
1 32953U 08025A   18150.57414988 +.00000033 +00000-0 +16636-3 0  9999
2 32953 082.5049 023.6355 0018100 248.2226 111.6928 12.43083090454586
PRISM (HITOMI)
1 33493U 09002B   18150.71349152 -.00000170  00000-0 -93886-5 0  9999
2 33493  98.1335  52.1334 0016300  18.4463 341.7351 14.96206495507739
KKS-1 (KISEKI)
1 33499U 09002H   18150.61305833 +.00000078 +00000-0 +19572-4 0  9996
2 33499 098.3557 331.8097 0009054 357.2441 002.8715 14.75330206502160
SWISSCUBE
1 35932U 09051B   18150.36475467 +.00000127 +00000-0 +39775-4 0  9999
2 35932 098.5429 301.0993 0006415 263.1156 096.9312 14.56160497460807
BEESAT
1 35933U 09051C   18150.87421355  .00000084  00000-0  29872-4 0  9992
2 35933  98.5471 303.1578 0004584 277.6838  82.3838 14.56264351461020
ITUPSAT 1
1 35935U 09051E   18150.36921525 +.00000083 +00000-0 +30307-4 0  9996
2 35935 098.5583 302.8936 0006894 273.2114 086.8294 14.55441347460738
XIWANG-1 (HOPE-1)
1 36122U 09072B   18150.60736958 -.00000048 +00000-0 -15393-4 0  9990
2 36122 100.0770 166.0645 0007892 148.4964 211.6623 13.16344701406237
TISAT 1
1 36799U 10035E   18150.32957551 +.00000429 +00000-0 +49695-4 0  9997
2 36799 098.1039 286.0747 0010961 266.4809 093.5155 14.90795202427293
JUGNU
1 37839U 11058B   18150.26995032  .00000315  00000-0  26220-4 0  9991
2 37839  19.9599 145.8940 0019111  49.8971  61.4943 14.12620339342834
SRMSAT
1 37841U 11058D   18150.48029975 +.00000300 +00000-0 +19749-4 0  9994
2 37841 019.9706 193.4594 0011710 297.0611 199.6553 14.10607110342286
M-CUBED/EXP-1 PRIME
1 37855U 11061F   18150.11768875 +.00001287 +00000-0 +73274-4 0  9990
2 37855 101.7169 203.4115 0176929 135.7332 225.8187 15.04384642358465
HORYU 2
1 38340U 12025D   18150.57891322 +.00000165 +00000-0 +32387-4 0  9999
2 38340 098.3667 171.6948 0010160 266.6405 093.3641 14.75553601314104
STRAND 1
1 39090U 13009E   18150.53915626  .00000035  00000-0  27737-4 0  9994
2 39090  98.5233 357.1533 0009158 357.7473   2.3670 14.35026588275294
SOMP
1 39134U 13015E   18150.49160934 +.00000898 +00000-0 +52027-4 0  9996
2 39134 064.8627 184.1495 0013567 214.6989 145.3254 15.19134265281831
BEESAT 3
1 39135U 13015F   18150.55041254  .00000424  00000-0  31576-4 0  9998
2 39135  64.8683 197.0898 0023261 237.0141 122.8749 15.16653400281973
BEESAT 2
1 39136U 13015G   18150.51397733 +.00000684 +00000-0 +45328-4 0  9999
2 39136 064.8690 199.9426 0022491 239.2218 120.6694 15.16122677281526
CUBEBUG 1
1 39153U 13018D   18150.80274933  .00000141  00000-0  25388-4 0  9991
2 39153  97.9783 246.1517 0017009   7.6355 352.5112 14.80394425275020
ZACUBE
1 39417U 13066B   18150.61219981 +.00000172 +00000-0 +28125-4 0  9994
2 39417 097.5880 180.1887 0058303 211.4217 148.3508 14.80933052244197
TRITON 1
1 39427U 13066M   18150.57444553 +.00000192 +00000-0 +38947-4 0  9990
2 39427 097.6409 147.6673 0112980 316.3957 042.8360 14.67664218241804
GOMX 1
1 39430U 13066Q   18150.61085823 +.00000174 +00000-0 +40478-4 0  9992
2 39430 097.6965 128.7511 0152354 026.5637 334.3270 14.59076213240407
HUMSAT D
1 39433U 13066T   18150.60130593 +.00000248 +00000-0 +29737-4 0  9996
2 39433 097.6050 207.5936 0032145 139.0563 221.3079 14.91854579244620
50 SAT
1 39436U 13066W   18138.34627707  .08053685  26553-5  29454-2 0  9995
2 39436  97.7009 274.5525 0018818 286.4398 133.6699 16.24208076248686
CUBEBUG 2
1 39440U 13066AA  18150.57845897 +.00000193 +00000-0 +34107-4 0  9996
2 39440 097.6018 166.8604 0078963 252.3932 106.8642 14.75669447242124
FUNCUBE 1
1 39444U 13066AE  18150.61738570 +.00000260 +00000-0 +38621-4 0  9994
2 39444 097.5890 181.6968 0057564 206.7711 153.0529 14.81710370242469
UWE-3
1 39446U 13066AG  18150.56370290 +.00000196 +00000-0 +32977-4 0  9997
2 39446 097.5935 173.1033 0068948 232.4746 127.0188 14.78203231241923
SPROUT
1 39770U 14029E   18150.49058051  .00000513  00000-0  63620-4 0  9999
2 39770  97.8756 251.6846 0007417 264.0257  96.0106 14.86833302217737
UNISAT 6
1 40012U 14033C   18150.63008638 +.00000177 +00000-0 +34047-4 0  9994
2 40012 097.8107 027.5513 0056991 255.7098 103.7778 14.73817215212119
DUCHIFAT 1
1 40021U 14033M   18150.33314122  .00000357  00000-0  42596-4 0  9997
2 40021  97.9169  69.0193 0011636 234.3264 125.6870 14.90300249214298
QB50P1
1 40025U 14033R   18150.53754736  .00000205  00000-0  27993-4 0  9998
2 40025  97.9063  65.9714 0011115 240.4555 119.5554 14.88709945214162
CHUBUSAT 1
1 40300U 14070C   18150.79934156  .00000583  00000-0  28840-4 0  9990
2 40300  97.3649 228.8657 0019243 327.9734 148.4158 15.21557051197638
NUDT-PHONESAT
1 40900U 15049B   18150.80905297  .00001797  00000-0  83343-4 0  9996
2 40900  97.4411 159.2624 0015370  90.2654 270.0343 15.21256713149277
ZDPS 2A
1 40901U 15049C   18150.86260788  .00000757  00000-0  41521-4 0  9999
2 40901  97.4586 157.4805 0015510  97.1986 263.1012 15.17065080149032
ZDPS 2B
1 40902U 15049D   18150.57009560 +.00000697 +00000-0 +38699-4 0  9992
2 40902 097.4485 155.2440 0015581 095.5935 264.7076 15.16859264148979
XW-2A
1 40903U 15049E   18150.83328524  .00001702  00000-0  44020-4 0  9999
2 40903  97.3853 185.5153 0016044  92.9758 267.3324 15.40438095151133
KAITUO 1A
1 40904U 15049F   18150.77243161  .00000117  00000-0  97873-5 0  9990
2 40904  97.4585 154.6832 0016507  97.2122 348.0066 15.15005387148867
OBJECT G
1 40905U 15049G   18150.89911365  .00000344  00000-0  22495-4 0  9991
2 40905  97.4585 152.9103 0017558  90.7590 269.5654 15.13962321148806
XW-2C
1 40906U 15049H   18150.81764504  .00000533  00000-0  31848-4 0  9997
2 40906  97.4597 154.6279 0016806  90.2875 270.0283 15.15174288148869
XW-2D
1 40907U 15049J   18150.57371990 +.00000596 +00000-0 +35058-4 0  9990
2 40907 097.4571 154.0874 0016170 089.1214 271.1871 15.15323838148834
LILACSAT 2
1 40908U 15049K   18150.55907823 +.00000321 +00000-0 +21511-4 0  9994
2 40908 097.4683 153.4547 0017791 090.6379 269.6891 15.13501425148706
XW-2F
1 40910U 15049M   18150.80007687  .00000919  00000-0  50436-4 0  9995
2 40910  97.4572 155.5930 0016919  84.5352 275.7810 15.16507277148825
XW-2B
1 40911U 15049N   18150.52454116  .00000583  00000-0  34421-4 0  9991
2 40911  97.4606 154.5703 0016079  89.7229 270.5846 15.15267936148723
KAITUO 1B
1 40912U 15049P   18150.56689123 +.00000977 +00000-0 +50213-4 0  9998
2 40912 097.4503 158.1453 0017230 074.2616 041.2976 15.18720476148993
